owner,sensor,date,latitude,longitude,air_temperature,qcFlag 
COMPS,ioos:station:USF.COMPS:SHP:1,2013-02-01T00:00:00Z,30.0600,-84.2910,11.4,1111122 
COMPS,ioos:station:USF.COMPS:SHP:1,2013-02-01T01:00:00Z,30.0600,-84.2910,10.5,1111122 
COMPS,ioos:station:USF.COMPS:SHP:1,2013-02-01T01:06:00Z,30.0600,-84.2910,10.23,1111122 
COMPS,ioos:station:USF.COMPS:SHP:1,2013-02-01T01:12:00Z,30.0600,-84.2910,10.22,1111122 
COMPS,ioos:station:USF.COMPS:SHP:1,2013-02-01T01:18:00Z,30.0600,-84.2910,10.13,1111122 
COMPS,ioos:station:USF.COMPS:SHP:1,2013-02-01T01:24:00Z,30.0600,-84.2910,10.11,1111122 
COMPS,ioos:station:USF.COMPS:SHP:1,2013-02-01T01:30:00Z,30.0600,-84.2910,9.99,1111122 
COMPS,ioos:station:USF.COMPS:SHP:1,2013-02-01T01:36:00Z,30.0600,-84.2910,9.91,1111122 
COMPS,ioos:station:USF.COMPS:SHP:1,2013-02-01T01:42:00Z,30.0600,-84.2910,9.74,1111122 
COMPS,ioos:station:USF.COMPS:SHP:1,2013-02-01T01:48:00Z,30.0600,-84.2910,9.64,1111122 
COMPS,ioos:station:USF.COMPS:SHP:1,2013-02-01T01:54:00Z,30.0600,-84.2910,9.72,1111122 
COMPS,ioos:station:USF.COMPS:SHP:1,2013-02-01T02:00:00Z,30.0600,-84.2910,9.7,1111122 
COMPS,ioos:station:USF.COMPS:SHP:1,2013-02-01T02:06:00Z,30.0600,-84.2910,9.53,1111122 
COMPS,ioos:station:USF.COMPS:SHP:1,2013-02-01T02:12:00Z,30.0600,-84.2910,9.37,1111122 
COMPS,ioos:station:USF.COMPS:SHP:1,2013-02-01T02:18:00Z,30.0600,-84.2910,9.18,1111122 
COMPS,ioos:station:USF.COMPS:SHP:1,2013-02-01T02:24:00Z,30.0600,-84.2910,9.0,1111122 
COMPS,ioos:station:USF.COMPS:SHP:1,2013-02-01T02:30:00Z,30.0600,-84.2910,8.86,1111122 
COMPS,ioos:station:USF.COMPS:SHP:1,2013-02-01T02:36:00Z,30.0600,-84.2910,8.96,1111122 
COMPS,ioos:station:USF.COMPS:SHP:1,2013-02-01T02:42:00Z,30.0600,-84.2910,9.06,1111122 
COMPS,ioos:station:USF.COMPS:SHP:1,2013-02-01T02:48:00Z,30.0600,-84.2910,8.95,1111122 
COMPS,ioos:station:USF.COMPS:SHP:1,2013-02-01T02:54:00Z,30.0600,-84.2910,8.95,1111122 
COMPS,ioos:station:USF.COMPS:SHP:1,2013-02-01T03:00:00Z,30.0600,-84.2910,9.0,1111122 
COMPS,ioos:station:USF.COMPS:SHP:1,2013-02-01T03:06:00Z,30.0600,-84.2910,8.94,1111122 
COMPS,ioos:station:USF.COMPS:SHP:1,2013-02-01T03:12:00Z,30.0600,-84.2910,8.82,1111122 
COMPS,ioos:station:USF.COMPS:SHP:1,2013-02-01T03:18:00Z,30.0600,-84.2910,8.85,1111122 
COMPS,ioos:station:USF.COMPS:SHP:1,2013-02-01T03:24:00Z,30.0600,-84.2910,8.83,1111122 
COMPS,ioos:station:USF.COMPS:SHP:1,2013-02-01T03:30:00Z,30.0600,-84.2910,8.78,1111122 
COMPS,ioos:station:USF.COMPS:SHP:1,2013-02-01T03:36:00Z,30.0600,-84.2910,8.53,1111122 
COMPS,ioos:station:USF.COMPS:SHP:1,2013-02-01T03:42:00Z,30.0600,-84.2910,8.33,1111122 
COMPS,ioos:station:USF.COMPS:SHP:1,2013-02-01T03:48:00Z,30.0600,-84.2910,8.11,1111122 
COMPS,ioos:station:USF.COMPS:SHP:1,2013-02-01T03:54:00Z,30.0600,-84.2910,8.18,1111122 
COMPS,ioos:station:USF.COMPS:SHP:1,2013-02-01T04:00:00Z,30.0600,-84.2910,8.2,1111122 
COMPS,ioos:station:USF.COMPS:SHP:1,2013-02-01T04:06:00Z,30.0600,-84.2910,8.16,1111122 
COMPS,ioos:station:USF.COMPS:SHP:1,2013-02-01T04:12:00Z,30.0600,-84.2910,8.18,1111122 
COMPS,ioos:station:USF.COMPS:SHP:1,2013-02-01T04:18:00Z,30.0600,-84.2910,8.26,1111122 
COMPS,ioos:station:USF.COMPS:SHP:1,2013-02-01T04:24:00Z,30.0600,-84.2910,8.28,1111122 
COMPS,ioos:station:USF.COMPS:SHP:1,2013-02-01T04:30:00Z,30.0600,-84.2910,8.22,1111122 
COMPS,ioos:station:USF.COMPS:SHP:1,2013-02-01T04:36:00Z,30.0600,-84.2910,8.21,1111122 
COMPS,ioos:station:USF.COMPS:SHP:1,2013-02-01T04:42:00Z,30.0600,-84.2910,8.26,1111122 
COMPS,ioos:station:USF.COMPS:SHP:1,2013-02-01T04:48:00Z,30.0600,-84.2910,7.9,1111122 
COMPS,ioos:station:USF.COMPS:SHP:1,2013-02-01T04:54:00Z,30.0600,-84.2910,7.69,1111122 
COMPS,ioos:station:USF.COMPS:SHP:1,2013-02-01T05:00:00Z,30.0600,-84.2910,7.7,1111122 
COMPS,ioos:station:USF.COMPS:SHP:1,2013-02-01T05:06:00Z,30.0600,-84.2910,7.72,1111122 
COMPS,ioos:station:USF.COMPS:SHP:1,2013-02-01T05:12:00Z,30.0600,-84.2910,7.74,1111122 
COMPS,ioos:station:USF.COMPS:SHP:1,2013-02-01T05:18:00Z,30.0600,-84.2910,7.51,1111122 
COMPS,ioos:station:USF.COMPS:SHP:1,2013-02-01T05:24:00Z,30.0600,-84.2910,7.5,1111122 
COMPS,ioos:station:USF.COMPS:SHP:1,2013-02-01T05:30:00Z,30.0600,-84.2910,7.64,1111122 
COMPS,ioos:station:USF.COMPS:SHP:1,2013-02-01T05:36:00Z,30.0600,-84.2910,7.67,1111122 
COMPS,ioos:station:USF.COMPS:SHP:1,2013-02-01T05:42:00Z,30.0600,-84.2910,7.47,1111122 
COMPS,ioos:station:USF.COMPS:SHP:1,2013-02-01T05:48:00Z,30.0600,-84.2910,7.23,1111122 
COMPS,ioos:station:USF.COMPS:SHP:1,2013-02-01T05:54:00Z,30.0600,-84.2910,7.28,1111122 
COMPS,ioos:station:USF.COMPS:SHP:1,2013-02-01T06:00:00Z,30.0600,-84.2910,7.3,1111122 
COMPS,ioos:station:USF.COMPS:SHP:1,2013-02-01T07:00:00Z,30.0600,-84.2910,6.9,1111122 
COMPS,ioos:station:USF.COMPS:SHP:1,2013-02-01T07:06:00Z,30.0600,-84.2910,6.42,1111122 
COMPS,ioos:station:USF.COMPS:SHP:1,2013-02-01T07:12:00Z,30.0600,-84.2910,6.37,1111122 
COMPS,ioos:station:USF.COMPS:SHP:1,2013-02-01T07:18:00Z,30.0600,-84.2910,6.3,1111122 
COMPS,ioos:station:USF.COMPS:SHP:1,2013-02-01T07:24:00Z,30.0600,-84.2910,6.32,1111122 
COMPS,ioos:station:USF.COMPS:SHP:1,2013-02-01T07:30:00Z,30.0600,-84.2910,6.07,1111122 
COMPS,ioos:station:USF.COMPS:SHP:1,2013-02-01T07:36:00Z,30.0600,-84.2910,6.07,1111122 
COMPS,ioos:station:USF.COMPS:SHP:1,2013-02-01T07:42:00Z,30.0600,-84.2910,6.42,1111122 
COMPS,ioos:station:USF.COMPS:SHP:1,2013-02-01T07:48:00Z,30.0600,-84.2910,6.15,1111122 
COMPS,ioos:station:USF.COMPS:SHP:1,2013-02-01T07:54:00Z,30.0600,-84.2910,6.03,1111122 
COMPS,ioos:station:USF.COMPS:SHP:1,2013-02-01T08:00:00Z,30.0600,-84.2910,6.0,1111122 
COMPS,ioos:station:USF.COMPS:SHP:1,2013-02-01T08:06:00Z,30.0600,-84.2910,6.0,1111122 
COMPS,ioos:station:USF.COMPS:SHP:1,2013-02-01T08:12:00Z,30.0600,-84.2910,5.88,1111122 
COMPS,ioos:station:USF.COMPS:SHP:1,2013-02-01T08:18:00Z,30.0600,-84.2910,6.06,1111122 
COMPS,ioos:station:USF.COMPS:SHP:1,2013-02-01T08:24:00Z,30.0600,-84.2910,6.14,1111122 
COMPS,ioos:station:USF.COMPS:SHP:1,2013-02-01T08:30:00Z,30.0600,-84.2910,6.41,1111122 
COMPS,ioos:station:USF.COMPS:SHP:1,2013-02-01T08:36:00Z,30.0600,-84.2910,6.35,1111122 
COMPS,ioos:station:USF.COMPS:SHP:1,2013-02-01T08:42:00Z,30.0600,-84.2910,6.45,1111122 
COMPS,ioos:station:USF.COMPS:SHP:1,2013-02-01T08:48:00Z,30.0600,-84.2910,6.4,1111122 
COMPS,ioos:station:USF.COMPS:SHP:1,2013-02-01T08:54:00Z,30.0600,-84.2910,6.65,1111122 
COMPS,ioos:station:USF.COMPS:SHP:1,2013-02-01T09:00:00Z,30.0600,-84.2910,6.7,1111122 
COMPS,ioos:station:USF.COMPS:SHP:1,2013-02-01T09:06:00Z,30.0600,-84.2910,6.72,1111122 
COMPS,ioos:station:USF.COMPS:SHP:1,2013-02-01T09:12:00Z,30.0600,-84.2910,6.65,1111122 
COMPS,ioos:station:USF.COMPS:SHP:1,2013-02-01T09:18:00Z,30.0600,-84.2910,6.57,1111122 
COMPS,ioos:station:USF.COMPS:SHP:1,2013-02-01T09:24:00Z,30.0600,-84.2910,6.41,1111122 
COMPS,ioos:station:USF.COMPS:SHP:1,2013-02-01T09:30:00Z,30.0600,-84.2910,6.43,1111122 
COMPS,ioos:station:USF.COMPS:SHP:1,2013-02-01T09:36:00Z,30.0600,-84.2910,6.43,1111122 
COMPS,ioos:station:USF.COMPS:SHP:1,2013-02-01T09:42:00Z,30.0600,-84.2910,6.47,1111122 
COMPS,ioos:station:USF.COMPS:SHP:1,2013-02-01T09:48:00Z,30.0600,-84.2910,6.27,1111122 
COMPS,ioos:station:USF.COMPS:SHP:1,2013-02-01T09:54:00Z,30.0600,-84.2910,6.27,1111122 
COMPS,ioos:station:USF.COMPS:SHP:1,2013-02-01T10:00:00Z,30.0600,-84.2910,6.3,1111122 
COMPS,ioos:station:USF.COMPS:SHP:1,2013-02-01T10:06:00Z,30.0600,-84.2910,6.23,1111122 
COMPS,ioos:station:USF.COMPS:SHP:1,2013-02-01T10:12:00Z,30.0600,-84.2910,6.37,1111122 
COMPS,ioos:station:USF.COMPS:SHP:1,2013-02-01T10:18:00Z,30.0600,-84.2910,6.3,1111122 
COMPS,ioos:station:USF.COMPS:SHP:1,2013-02-01T10:24:00Z,30.0600,-84.2910,6.15,1111122 
COMPS,ioos:station:USF.COMPS:SHP:1,2013-02-01T10:30:00Z,30.0600,-84.2910,6.06,1111122 
COMPS,ioos:station:USF.COMPS:SHP:1,2013-02-01T10:36:00Z,30.0600,-84.2910,5.96,1111122 
COMPS,ioos:station:USF.COMPS:SHP:1,2013-02-01T10:42:00Z,30.0600,-84.2910,5.83,1111122 
COMPS,ioos:station:USF.COMPS:SHP:1,2013-02-01T10:48:00Z,30.0600,-84.2910,5.59,1111122 
COMPS,ioos:station:USF.COMPS:SHP:1,2013-02-01T10:54:00Z,30.0600,-84.2910,5.69,1111122 
COMPS,ioos:station:USF.COMPS:SHP:1,2013-02-01T11:00:00Z,30.0600,-84.2910,5.7,1111122 
COMPS,ioos:station:USF.COMPS:SHP:1,2013-02-01T11:06:00Z,30.0600,-84.2910,5.76,1111122 
COMPS,ioos:station:USF.COMPS:SHP:1,2013-02-01T11:12:00Z,30.0600,-84.2910,5.72,1111122 
COMPS,ioos:station:USF.COMPS:SHP:1,2013-02-01T11:18:00Z,30.0600,-84.2910,5.71,1111122 
COMPS,ioos:station:USF.COMPS:SHP:1,2013-02-01T11:24:00Z,30.0600,-84.2910,5.73,1111122 
COMPS,ioos:station:USF.COMPS:SHP:1,2013-02-01T11:30:00Z,30.0600,-84.2910,5.62,1111122 
COMPS,ioos:station:USF.COMPS:SHP:1,2013-02-01T11:36:00Z,30.0600,-84.2910,5.7,1111122 
COMPS,ioos:station:USF.COMPS:SHP:1,2013-02-01T11:42:00Z,30.0600,-84.2910,5.87,1111122 
COMPS,ioos:station:USF.COMPS:SHP:1,2013-02-01T11:48:00Z,30.0600,-84.2910,5.68,1111122 
COMPS,ioos:station:USF.COMPS:SHP:1,2013-02-01T11:54:00Z,30.0600,-84.2910,5.71,1111122 
COMPS,ioos:station:USF.COMPS:SHP:1,2013-02-01T12:00:00Z,30.0600,-84.2910,5.7,1111122 
COMPS,ioos:station:USF.COMPS:SHP:1,2013-02-01T12:06:00Z,30.0600,-84.2910,5.64,1111122 
COMPS,ioos:station:USF.COMPS:SHP:1,2013-02-01T12:12:00Z,30.0600,-84.2910,5.74,1111122 
COMPS,ioos:station:USF.COMPS:SHP:1,2013-02-01T12:18:00Z,30.0600,-84.2910,5.74,1111122 
COMPS,ioos:station:USF.COMPS:SHP:1,2013-02-01T12:24:00Z,30.0600,-84.2910,5.57,1111122 
COMPS,ioos:station:USF.COMPS:SHP:1,2013-02-01T12:30:00Z,30.0600,-84.2910,5.77,1111122 
COMPS,ioos:station:USF.COMPS:SHP:1,2013-02-01T12:36:00Z,30.0600,-84.2910,6.22,1111122 
COMPS,ioos:station:USF.COMPS:SHP:1,2013-02-01T12:42:00Z,30.0600,-84.2910,6.6,1111122 
COMPS,ioos:station:USF.COMPS:SHP:1,2013-02-01T12:48:00Z,30.0600,-84.2910,6.32,1111122 
COMPS,ioos:station:USF.COMPS:SHP:1,2013-02-01T12:54:00Z,30.0600,-84.2910,6.27,1111122 
COMPS,ioos:station:USF.COMPS:SHP:1,2013-02-01T13:00:00Z,30.0600,-84.2910,6.3,1111122 
COMPS,ioos:station:USF.COMPS:SHP:1,2013-02-01T13:06:00Z,30.0600,-84.2910,6.59,1111122 
COMPS,ioos:station:USF.COMPS:SHP:1,2013-02-01T13:12:00Z,30.0600,-84.2910,6.45,1111122 
COMPS,ioos:station:USF.COMPS:SHP:1,2013-02-01T13:18:00Z,30.0600,-84.2910,6.51,1111122 
COMPS,ioos:station:USF.COMPS:SHP:1,2013-02-01T13:24:00Z,30.0600,-84.2910,6.6,1111122 
COMPS,ioos:station:USF.COMPS:SHP:1,2013-02-01T13:30:00Z,30.0600,-84.2910,6.78,1111122 
COMPS,ioos:station:USF.COMPS:SHP:1,2013-02-01T13:36:00Z,30.0600,-84.2910,6.99,1111122 
COMPS,ioos:station:USF.COMPS:SHP:1,2013-02-01T13:42:00Z,30.0600,-84.2910,7.42,1111122 
COMPS,ioos:station:USF.COMPS:SHP:1,2013-02-01T13:48:00Z,30.0600,-84.2910,7.59,1111122 
COMPS,ioos:station:USF.COMPS:SHP:1,2013-02-01T13:54:00Z,30.0600,-84.2910,8.08,1111122 
COMPS,ioos:station:USF.COMPS:SHP:1,2013-02-01T14:00:00Z,30.0600,-84.2910,8.1,1111122 
COMPS,ioos:station:USF.COMPS:SHP:1,2013-02-01T14:06:00Z,30.0600,-84.2910,8.99,1111122 
COMPS,ioos:station:USF.COMPS:SHP:1,2013-02-01T14:12:00Z,30.0600,-84.2910,9.43,1111122 
COMPS,ioos:station:USF.COMPS:SHP:1,2013-02-01T14:18:00Z,30.0600,-84.2910,10.12,1111122 
COMPS,ioos:station:USF.COMPS:SHP:1,2013-02-01T14:24:00Z,30.0600,-84.2910,10.71,1111122 
COMPS,ioos:station:USF.COMPS:SHP:1,2013-02-01T14:30:00Z,30.0600,-84.2910,10.8,1111122 
COMPS,ioos:station:USF.COMPS:SHP:1,2013-02-01T14:36:00Z,30.0600,-84.2910,10.81,1111122 
COMPS,ioos:station:USF.COMPS:SHP:1,2013-02-01T14:42:00Z,30.0600,-84.2910,11.09,1111122 
COMPS,ioos:station:USF.COMPS:SHP:1,2013-02-01T14:48:00Z,30.0600,-84.2910,10.91,1111122 
COMPS,ioos:station:USF.COMPS:SHP:1,2013-02-01T14:54:00Z,30.0600,-84.2910,11.03,1111122 
COMPS,ioos:station:USF.COMPS:SHP:1,2013-02-01T15:00:00Z,30.0600,-84.2910,11.0,1111122 
COMPS,ioos:station:USF.COMPS:SHP:1,2013-02-01T15:06:00Z,30.0600,-84.2910,11.45,1111122 
COMPS,ioos:station:USF.COMPS:SHP:1,2013-02-01T15:12:00Z,30.0600,-84.2910,11.73,1111122 
COMPS,ioos:station:USF.COMPS:SHP:1,2013-02-01T15:18:00Z,30.0600,-84.2910,11.99,1111122 
COMPS,ioos:station:USF.COMPS:SHP:1,2013-02-01T15:24:00Z,30.0600,-84.2910,12.24,1111122 
COMPS,ioos:station:USF.COMPS:SHP:1,2013-02-01T15:30:00Z,30.0600,-84.2910,12.54,1111122 
COMPS,ioos:station:USF.COMPS:SHP:1,2013-02-01T15:36:00Z,30.0600,-84.2910,12.9,1111122 
COMPS,ioos:station:USF.COMPS:SHP:1,2013-02-01T15:42:00Z,30.0600,-84.2910,13.04,1111122 
COMPS,ioos:station:USF.COMPS:SHP:1,2013-02-01T15:48:00Z,30.0600,-84.2910,13.0,1111122 
COMPS,ioos:station:USF.COMPS:SHP:1,2013-02-01T15:54:00Z,30.0600,-84.2910,13.29,1111122 
COMPS,ioos:station:USF.COMPS:SHP:1,2013-02-01T16:00:00Z,30.0600,-84.2910,13.3,1111122 
COMPS,ioos:station:USF.COMPS:SHP:1,2013-02-01T16:06:00Z,30.0600,-84.2910,13.55,1111122 
COMPS,ioos:station:USF.COMPS:SHP:1,2013-02-01T16:12:00Z,30.0600,-84.2910,13.65,1111122 
COMPS,ioos:station:USF.COMPS:SHP:1,2013-02-01T16:18:00Z,30.0600,-84.2910,13.79,1111122 
COMPS,ioos:station:USF.COMPS:SHP:1,2013-02-01T16:24:00Z,30.0600,-84.2910,13.95,1111122 
COMPS,ioos:station:USF.COMPS:SHP:1,2013-02-01T16:30:00Z,30.0600,-84.2910,14.05,1111122 
COMPS,ioos:station:USF.COMPS:SHP:1,2013-02-01T16:36:00Z,30.0600,-84.2910,14.29,1111122 
COMPS,ioos:station:USF.COMPS:SHP:1,2013-02-01T16:42:00Z,30.0600,-84.2910,14.54,1111122 
COMPS,ioos:station:USF.COMPS:SHP:1,2013-02-01T16:48:00Z,30.0600,-84.2910,14.84,1111122 
COMPS,ioos:station:USF.COMPS:SHP:1,2013-02-01T16:54:00Z,30.0600,-84.2910,14.85,1111122 
COMPS,ioos:station:USF.COMPS:SHP:1,2013-02-01T17:00:00Z,30.0600,-84.2910,14.9,1111122 
COMPS,ioos:station:USF.COMPS:SHP:1,2013-02-01T17:06:00Z,30.0600,-84.2910,14.9,1111122 
COMPS,ioos:station:USF.COMPS:SHP:1,2013-02-01T17:12:00Z,30.0600,-84.2910,14.92,1111122 
COMPS,ioos:station:USF.COMPS:SHP:1,2013-02-01T17:18:00Z,30.0600,-84.2910,14.84,1111122 
COMPS,ioos:station:USF.COMPS:SHP:1,2013-02-01T17:24:00Z,30.0600,-84.2910,14.81,1111122 
COMPS,ioos:station:USF.COMPS:SHP:1,2013-02-01T17:30:00Z,30.0600,-84.2910,14.86,1111122 
COMPS,ioos:station:USF.COMPS:SHP:1,2013-02-01T17:36:00Z,30.0600,-84.2910,14.94,1111122 
COMPS,ioos:station:USF.COMPS:SHP:1,2013-02-01T17:42:00Z,30.0600,-84.2910,15.26,1111122 
COMPS,ioos:station:USF.COMPS:SHP:1,2013-02-01T17:48:00Z,30.0600,-84.2910,15.12,1111122 
COMPS,ioos:station:USF.COMPS:SHP:1,2013-02-01T17:54:00Z,30.0600,-84.2910,15.26,1111122 
COMPS,ioos:station:USF.COMPS:SHP:1,2013-02-01T18:00:00Z,30.0600,-84.2910,15.3,1111122 
COMPS,ioos:station:USF.COMPS:SHP:1,2013-02-01T18:06:00Z,30.0600,-84.2910,15.29,1111122 
COMPS,ioos:station:USF.COMPS:SHP:1,2013-02-01T18:12:00Z,30.0600,-84.2910,15.21,1111122 
COMPS,ioos:station:USF.COMPS:SHP:1,2013-02-01T18:18:00Z,30.0600,-84.2910,15.2,1111122 
COMPS,ioos:station:USF.COMPS:SHP:1,2013-02-01T18:24:00Z,30.0600,-84.2910,15.2,1111122 
COMPS,ioos:station:USF.COMPS:SHP:1,2013-02-01T18:30:00Z,30.0600,-84.2910,15.4,1111122 
COMPS,ioos:station:USF.COMPS:SHP:1,2013-02-01T18:36:00Z,30.0600,-84.2910,15.49,1111122 
COMPS,ioos:station:USF.COMPS:SHP:1,2013-02-01T18:42:00Z,30.0600,-84.2910,15.56,1111122 
COMPS,ioos:station:USF.COMPS:SHP:1,2013-02-01T18:48:00Z,30.0600,-84.2910,15.44,1111122 
COMPS,ioos:station:USF.COMPS:SHP:1,2013-02-01T18:54:00Z,30.0600,-84.2910,15.63,1111122 
COMPS,ioos:station:USF.COMPS:SHP:1,2013-02-01T19:00:00Z,30.0600,-84.2910,15.6,1111122 
COMPS,ioos:station:USF.COMPS:SHP:1,2013-02-01T19:06:00Z,30.0600,-84.2910,15.5,1111122 
COMPS,ioos:station:USF.COMPS:SHP:1,2013-02-01T19:12:00Z,30.0600,-84.2910,15.63,1111122 
COMPS,ioos:station:USF.COMPS:SHP:1,2013-02-01T19:18:00Z,30.0600,-84.2910,15.83,1111122 
COMPS,ioos:station:USF.COMPS:SHP:1,2013-02-01T19:24:00Z,30.0600,-84.2910,15.88,1111122 
COMPS,ioos:station:USF.COMPS:SHP:1,2013-02-01T19:30:00Z,30.0600,-84.2910,15.83,1111122 
COMPS,ioos:station:USF.COMPS:SHP:1,2013-02-01T19:36:00Z,30.0600,-84.2910,15.73,1111122 
COMPS,ioos:station:USF.COMPS:SHP:1,2013-02-01T19:42:00Z,30.0600,-84.2910,15.81,1111122 
COMPS,ioos:station:USF.COMPS:SHP:1,2013-02-01T19:48:00Z,30.0600,-84.2910,15.74,1111122 
COMPS,ioos:station:USF.COMPS:SHP:1,2013-02-01T19:54:00Z,30.0600,-84.2910,15.74,1111122 
COMPS,ioos:station:USF.COMPS:SHP:1,2013-02-01T20:00:00Z,30.0600,-84.2910,15.7,1111122 
COMPS,ioos:station:USF.COMPS:SHP:1,2013-02-01T20:06:00Z,30.0600,-84.2910,16.01,1111122 
COMPS,ioos:station:USF.COMPS:SHP:1,2013-02-01T20:12:00Z,30.0600,-84.2910,15.85,1111122 
COMPS,ioos:station:USF.COMPS:SHP:1,2013-02-01T20:18:00Z,30.0600,-84.2910,15.75,1111122 
COMPS,ioos:station:USF.COMPS:SHP:1,2013-02-01T20:24:00Z,30.0600,-84.2910,15.66,1111122 
COMPS,ioos:station:USF.COMPS:SHP:1,2013-02-01T20:30:00Z,30.0600,-84.2910,15.82,1111122 
COMPS,ioos:station:USF.COMPS:SHP:1,2013-02-01T20:36:00Z,30.0600,-84.2910,15.96,1111122 
COMPS,ioos:station:USF.COMPS:SHP:1,2013-02-01T20:42:00Z,30.0600,-84.2910,15.86,1111122 
COMPS,ioos:station:USF.COMPS:SHP:1,2013-02-01T20:48:00Z,30.0600,-84.2910,15.74,1111122 
COMPS,ioos:station:USF.COMPS:SHP:1,2013-02-01T20:54:00Z,30.0600,-84.2910,15.59,1111122 
COMPS,ioos:station:USF.COMPS:SHP:1,2013-02-01T21:00:00Z,30.0600,-84.2910,15.6,1111122 
COMPS,ioos:station:USF.COMPS:SHP:1,2013-02-01T21:06:00Z,30.0600,-84.2910,15.69,1111122 
COMPS,ioos:station:USF.COMPS:SHP:1,2013-02-01T21:12:00Z,30.0600,-84.2910,15.82,1111122 
COMPS,ioos:station:USF.COMPS:SHP:1,2013-02-01T21:18:00Z,30.0600,-84.2910,15.84,1111122 
COMPS,ioos:station:USF.COMPS:SHP:1,2013-02-01T21:24:00Z,30.0600,-84.2910,15.87,1111122 
COMPS,ioos:station:USF.COMPS:SHP:1,2013-02-01T21:30:00Z,30.0600,-84.2910,15.99,1111122 
COMPS,ioos:station:USF.COMPS:SHP:1,2013-02-01T21:36:00Z,30.0600,-84.2910,15.91,1111122 
COMPS,ioos:station:USF.COMPS:SHP:1,2013-02-01T21:42:00Z,30.0600,-84.2910,15.93,1111122 
COMPS,ioos:station:USF.COMPS:SHP:1,2013-02-01T21:48:00Z,30.0600,-84.2910,16.02,1111122 
COMPS,ioos:station:USF.COMPS:SHP:1,2013-02-01T21:54:00Z,30.0600,-84.2910,15.93,1111122 
COMPS,ioos:station:USF.COMPS:SHP:1,2013-02-01T22:00:00Z,30.0600,-84.2910,15.9,1111122 
COMPS,ioos:station:USF.COMPS:SHP:1,2013-02-01T22:06:00Z,30.0600,-84.2910,15.8,1111122 
COMPS,ioos:station:USF.COMPS:SHP:1,2013-02-01T22:12:00Z,30.0600,-84.2910,15.83,1111122 
COMPS,ioos:station:USF.COMPS:SHP:1,2013-02-01T22:18:00Z,30.0600,-84.2910,15.84,1111122 
COMPS,ioos:station:USF.COMPS:SHP:1,2013-02-01T22:24:00Z,30.0600,-84.2910,15.75,1111122 
COMPS,ioos:station:USF.COMPS:SHP:1,2013-02-01T22:30:00Z,30.0600,-84.2910,15.75,1111122 
COMPS,ioos:station:USF.COMPS:SHP:1,2013-02-01T22:36:00Z,30.0600,-84.2910,15.75,1111122 
COMPS,ioos:station:USF.COMPS:SHP:1,2013-02-01T22:42:00Z,30.0600,-84.2910,15.82,1111122 
COMPS,ioos:station:USF.COMPS:SHP:1,2013-02-01T22:48:00Z,30.0600,-84.2910,15.65,1111122 
COMPS,ioos:station:USF.COMPS:SHP:1,2013-02-01T22:54:00Z,30.0600,-84.2910,15.44,1111122 
COMPS,ioos:station:USF.COMPS:SHP:1,2013-02-01T23:00:00Z,30.0600,-84.2910,15.4,1111122 
COMPS,ioos:station:USF.COMPS:SHP:1,2013-02-01T23:06:00Z,30.0600,-84.2910,15.17,1111122 
COMPS,ioos:station:USF.COMPS:SHP:1,2013-02-01T23:12:00Z,30.0600,-84.2910,14.78,1111122 
COMPS,ioos:station:USF.COMPS:SHP:1,2013-02-01T23:18:00Z,30.0600,-84.2910,14.49,1111122 
COMPS,ioos:station:USF.COMPS:SHP:1,2013-02-01T23:24:00Z,30.0600,-84.2910,14.28,1111122 
COMPS,ioos:station:USF.COMPS:SHP:1,2013-02-01T23:30:00Z,30.0600,-84.2910,14.33,1111122 
COMPS,ioos:station:USF.COMPS:SHP:1,2013-02-01T23:36:00Z,30.0600,-84.2910,14.06,1111122 
COMPS,ioos:station:USF.COMPS:SHP:1,2013-02-01T23:42:00Z,30.0600,-84.2910,13.97,1111122 
COMPS,ioos:station:USF.COMPS:SHP:1,2013-02-01T23:48:00Z,30.0600,-84.2910,13.71,1111122 
COMPS,ioos:station:USF.COMPS:SHP:1,2013-02-01T23:54:00Z,30.0600,-84.2910,13.69,1111122 
COMPS,ioos:station:USF.COMPS:SHP:1,2013-02-02T00:00:00Z,30.0600,-84.2910,13.7,1111122 
COMPS,ioos:station:USF.COMPS:SHP:1,2013-02-02T00:06:00Z,30.0600,-84.2910,12.72,1111122 
COMPS,ioos:station:USF.COMPS:SHP:1,2013-02-02T00:12:00Z,30.0600,-84.2910,12.6,1111122 
COMPS,ioos:station:USF.COMPS:SHP:1,2013-02-02T00:18:00Z,30.0600,-84.2910,12.59,1111122 
COMPS,ioos:station:USF.COMPS:SHP:1,2013-02-02T00:24:00Z,30.0600,-84.2910,12.41,1111122 
COMPS,ioos:station:USF.COMPS:SHP:1,2013-02-02T00:30:00Z,30.0600,-84.2910,12.11,1111122 
COMPS,ioos:station:USF.COMPS:SHP:1,2013-02-02T00:36:00Z,30.0600,-84.2910,11.85,1111122 
COMPS,ioos:station:USF.COMPS:SHP:1,2013-02-02T00:42:00Z,30.0600,-84.2910,11.9,1111122 
COMPS,ioos:station:USF.COMPS:SHP:1,2013-02-02T00:48:00Z,30.0600,-84.2910,11.73,1111122 
COMPS,ioos:station:USF.COMPS:SHP:1,2013-02-02T00:54:00Z,30.0600,-84.2910,11.6,1111122 
COMPS,ioos:station:USF.COMPS:SHP:1,2013-02-02T01:00:00Z,30.0600,-84.2910,11.6,1111122 
COMPS,ioos:station:USF.COMPS:SHP:1,2013-02-02T01:06:00Z,30.0600,-84.2910,11.45,1111122 
COMPS,ioos:station:USF.COMPS:SHP:1,2013-02-02T01:12:00Z,30.0600,-84.2910,11.49,1111122 
COMPS,ioos:station:USF.COMPS:SHP:1,2013-02-02T01:18:00Z,30.0600,-84.2910,11.4,1111122 
COMPS,ioos:station:USF.COMPS:SHP:1,2013-02-02T01:24:00Z,30.0600,-84.2910,11.17,1111122 
COMPS,ioos:station:USF.COMPS:SHP:1,2013-02-02T01:30:00Z,30.0600,-84.2910,11.12,1111122 
COMPS,ioos:station:USF.COMPS:SHP:1,2013-02-02T01:36:00Z,30.0600,-84.2910,11.02,1111122 
COMPS,ioos:station:USF.COMPS:SHP:1,2013-02-02T01:42:00Z,30.0600,-84.2910,10.96,1111122 
COMPS,ioos:station:USF.COMPS:SHP:1,2013-02-02T01:48:00Z,30.0600,-84.2910,10.6,1111122 
COMPS,ioos:station:USF.COMPS:SHP:1,2013-02-02T01:54:00Z,30.0600,-84.2910,10.36,1111122 
COMPS,ioos:station:USF.COMPS:SHP:1,2013-02-02T02:00:00Z,30.0600,-84.2910,10.4,1111122 
COMPS,ioos:station:USF.COMPS:SHP:1,2013-02-02T02:06:00Z,30.0600,-84.2910,10.36,1111122 
COMPS,ioos:station:USF.COMPS:SHP:1,2013-02-02T02:12:00Z,30.0600,-84.2910,10.09,1111122 
COMPS,ioos:station:USF.COMPS:SHP:1,2013-02-02T02:18:00Z,30.0600,-84.2910,9.95,1111122 
COMPS,ioos:station:USF.COMPS:SHP:1,2013-02-02T02:24:00Z,30.0600,-84.2910,10.29,1111122 
COMPS,ioos:station:USF.COMPS:SHP:1,2013-02-02T02:30:00Z,30.0600,-84.2910,10.32,1111122 
COMPS,ioos:station:USF.COMPS:SHP:1,2013-02-02T02:36:00Z,30.0600,-84.2910,10.25,1111122 
COMPS,ioos:station:USF.COMPS:SHP:1,2013-02-02T02:42:00Z,30.0600,-84.2910,10.31,1111122 
COMPS,ioos:station:USF.COMPS:SHP:1,2013-02-02T02:48:00Z,30.0600,-84.2910,10.07,1111122 
COMPS,ioos:station:USF.COMPS:SHP:1,2013-02-02T02:54:00Z,30.0600,-84.2910,9.97,1111122 
COMPS,ioos:station:USF.COMPS:SHP:1,2013-02-02T03:00:00Z,30.0600,-84.2910,10.0,1111122 
COMPS,ioos:station:USF.COMPS:SHP:1,2013-02-02T03:06:00Z,30.0600,-84.2910,9.72,1111122 
COMPS,ioos:station:USF.COMPS:SHP:1,2013-02-02T03:12:00Z,30.0600,-84.2910,9.63,1111122 
COMPS,ioos:station:USF.COMPS:SHP:1,2013-02-02T03:18:00Z,30.0600,-84.2910,9.4,1111122 
COMPS,ioos:station:USF.COMPS:SHP:1,2013-02-02T03:24:00Z,30.0600,-84.2910,9.24,1111122 
COMPS,ioos:station:USF.COMPS:SHP:1,2013-02-02T03:30:00Z,30.0600,-84.2910,9.12,1111122 
COMPS,ioos:station:USF.COMPS:SHP:1,2013-02-02T03:36:00Z,30.0600,-84.2910,9.14,1111122 
COMPS,ioos:station:USF.COMPS:SHP:1,2013-02-02T03:42:00Z,30.0600,-84.2910,9.22,1111122 
COMPS,ioos:station:USF.COMPS:SHP:1,2013-02-02T03:48:00Z,30.0600,-84.2910,9.02,1111122 
COMPS,ioos:station:USF.COMPS:SHP:1,2013-02-02T03:54:00Z,30.0600,-84.2910,8.81,1111122 
COMPS,ioos:station:USF.COMPS:SHP:1,2013-02-02T04:00:00Z,30.0600,-84.2910,8.8,1111122 
COMPS,ioos:station:USF.COMPS:SHP:1,2013-02-02T04:06:00Z,30.0600,-84.2910,8.68,1111122 
COMPS,ioos:station:USF.COMPS:SHP:1,2013-02-02T04:12:00Z,30.0600,-84.2910,8.5,1111122 
COMPS,ioos:station:USF.COMPS:SHP:1,2013-02-02T04:18:00Z,30.0600,-84.2910,8.32,1111122 
COMPS,ioos:station:USF.COMPS:SHP:1,2013-02-02T04:24:00Z,30.0600,-84.2910,8.15,1111122 
COMPS,ioos:station:USF.COMPS:SHP:1,2013-02-02T04:30:00Z,30.0600,-84.2910,8.1,1111122 
COMPS,ioos:station:USF.COMPS:SHP:1,2013-02-02T04:36:00Z,30.0600,-84.2910,7.76,1111122 
COMPS,ioos:station:USF.COMPS:SHP:1,2013-02-02T04:42:00Z,30.0600,-84.2910,7.74,1111122 
COMPS,ioos:station:USF.COMPS:SHP:1,2013-02-02T04:48:00Z,30.0600,-84.2910,7.53,1111122 
COMPS,ioos:station:USF.COMPS:SHP:1,2013-02-02T04:54:00Z,30.0600,-84.2910,7.56,1111122 
COMPS,ioos:station:USF.COMPS:SHP:1,2013-02-02T05:00:00Z,30.0600,-84.2910,7.6,1111122 
COMPS,ioos:station:USF.COMPS:SHP:1,2013-02-02T05:06:00Z,30.0600,-84.2910,7.12,1111122 